�N����,����,����,����,����,�C��,���x,�~����,�S�V����,�ő�u�ԕ���,,,,,
,,,,,,,,,����,����,����,�N��,,
yyyy/mm/dd,hh:mm:ss,(16),16����,m/s,��,%,mm,KW/�u,(16),16����,m/s,Time,,
2021/5/1,1:00:00,11,���쐼,3.4,4.6,81.5,0,0,12,��,7.6,35,,
2021/5/1,2:00:00,12,��,1.2,1.6,91.3,0,0,12,��,4.8,1,,
2021/5/1,3:00:00,14,�k��,2.2,1.5,95.8,0,0,14,�k��,3.7,51,,
2021/5/1,4:00:00,12,��,2.1,-0.4,97,0,0,14,�k��,4.4,1,,
2021/5/1,5:00:00,14,�k��,2.7,5.8,76.3,0,0.02,14,�k��,5.3,55,,
2021/5/1,6:00:00,13,���k��,3.5,7,72,0,0.09,14,�k��,6,22,,
2021/5/1,7:00:00,13,���k��,4.8,9.4,59.8,0,0.42,13,���k��,7.4,56,,
2021/5/1,8:00:00,13,���k��,4.5,11.8,55.3,0,0.61,14,�k��,8.2,3,,
2021/5/1,9:00:00,15,�k�k��,6,13,44.7,0,0.78,16,�k,10.3,53,,
2021/5/1,10:00:00,15,�k�k��,6.8,13.6,41.1,0,0.93,16,�k,14.2,40,,
2021/5/1,11:00:00,15,�k�k��,6.8,14,39.9,0,1.03,15,�k�k��,15.4,9,,
2021/5/1,12:00:00,15,�k�k��,6.1,15.4,42.7,0,1.06,16,�k,13.3,33,,
2021/5/1,13:00:00,15,�k�k��,5.6,15.9,38.6,0,1.01,15,�k�k��,11,6,,
2021/5/1,14:00:00,14,�k��,5.5,15.3,37.2,0,0.91,15,�k�k��,11.9,16,,
2021/5/1,15:00:00,11,���쐼,3.1,15.7,38.5,0,0.73,16,�k,8.1,27,,
2021/5/1,16:00:00,10,�쐼,2.5,13.9,52.4,0,0.51,14,�k��,7.3,8,,
2021/5/1,17:00:00,14,�k��,3.8,12.8,49.1,0,0.23,14,�k��,7,54,,
2021/5/1,18:00:00,14,�k��,3.9,10.7,60,0,0.06,14,�k��,6.7,53,,
2021/5/1,19:00:00,14,�k��,3.3,9,63.7,0,0.01,14,�k��,7.3,57,,
2021/5/1,20:00:00,3,���k��,0.8,8.4,63.7,0,0,14,�k��,6.3,26,,
2021/5/1,21:00:00,14,�k��,2.2,7,69.5,0,0,15,�k�k��,4.6,29,,
2021/5/1,22:00:00,13,���k��,1.1,4.7,74.2,0,0,14,�k��,4,3,,
2021/5/1,23:00:00,3,���k��,0.8,2.9,86.1,0,0,5,���쓌,2.6,34,,
2021/5/1,0:00:00,2,�k��,2.5,4.9,81.5,0,0,1,�k�k��,6.2,23,,
2021/5/2,1:00:00,2,�k��,3.1,4.4,87.8,0,0,2,�k��,4.7,54,,
2021/5/2,2:00:00,1,�k�k��,1.4,4.2,90,0,0,2,�k��,4.5,7,,
2021/5/2,3:00:00,15,�k�k��,1,4.4,87.8,0,0,16,�k,3,31,,
2021/5/2,4:00:00,1,�k�k��,1.8,4.2,88.6,0,0,2,�k��,2.7,51,,
2021/5/2,5:00:00,1,�k�k��,1.4,4,86.7,0,0.01,1,�k�k��,3.6,1,,
2021/5/2,6:00:00,12,��,0.7,4.3,86.3,0,0.03,13,���k��,3.5,43,,
2021/5/2,7:00:00,16,�É�,0.2,5.1,79.5,0,0.12,13,���k��,3.4,38,,
2021/5/2,8:00:00,3,���k��,0.9,6,78.3,0,0.29,5,���쓌,2.6,47,,
2021/5/2,9:00:00,3,���k��,2.6,4.9,84.7,0,0.11,4,��,5.1,33,,
2021/5/2,10:00:00,4,��,3.8,5.1,75.8,0,0.12,3,���k��,5.7,30,,
2021/5/2,11:00:00,5,���쓌,3,5.6,76.6,0,0.26,3,���k��,6.1,13,,
2021/5/2,12:00:00,4,��,2.5,5.6,76.5,0,0.37,5,���쓌,5.2,9,,
2021/5/2,13:00:00,6,�쓌,2.3,5,75.4,0,0.25,5,���쓌,4.3,0,,
2021/5/2,14:00:00,7,��쓌,1.7,4.7,80.8,0,0.14,8,��,3.6,27,,
2021/5/2,15:00:00,10,�쐼,1.3,4.9,74.8,0,0.18,8,��,2.6,15,,
2021/5/2,16:00:00,8,��,1.7,4.7,78.8,0,0.07,8,��,3.3,58,,
2021/5/2,17:00:00,8,��,2.5,4.4,84.5,0,0.04,9,��쐼,4.7,56,,
2021/5/2,18:00:00,9,��쐼,1.6,4.2,87.4,0,0.01,8,��,4.4,20,,
2021/5/2,19:00:00,9,��쐼,1.2,3.8,92.8,0,0,9,��쐼,3.9,1,,
2021/5/2,20:00:00,14,�k��,0.3,3.8,95.4,0,0,11,���쐼,5.3,43,,
2021/5/2,21:00:00,15,�k�k��,0.7,3.7,94.8,0,0,14,�k��,1.7,49,,
2021/5/2,22:00:00,2,�k��,1.2,3.5,95.6,0,0,1,�k�k��,2.2,59,,
2021/5/2,23:00:00,15,�k�k��,1.4,3.5,91.5,0,0,14,�k��,2.5,38,,
2021/5/2,0:00:00,11,���쐼,1.1,3.4,96.4,0,0,8,��,9.1,27,,
2021/5/3,1:00:00,16,�É�,0.2,3.5,94.8,0,0,12,��,1.7,25,,
2021/5/3,2:00:00,2.4,�k��,95,0,0,,,,,,,,
2021/5/3,3:00:00,12,��,1.5,0.3,98.6,0,0,7,��쓌,3.3,9,,
2021/5/3,4:00:00,11,���쐼,0.9,0.7,98.9,0,0,12,��,1.9,2,,
2021/5/3,5:00:00,12,��,0.5,1.9,98.9,0,0.02,13,���k��,1.8,59,,
2021/5/3,6:00:00,16,�É�,0.2,2.7,93.8,0,0.04,1,�k�k��,3.2,19,,
2021/5/3,7:00:00,13,���k��,0.6,3.8,91.7,0,0.09,12,��,1.5,23,,
2021/5/3,8:00:00,16,�É�,0.1,5.5,82.1,0,0.17,16,�k,2.2,5,,
2021/5/3,9:00:00,7,��쓌,1.2,7.2,66.9,0,0.28,6,�쓌,2.4,8,,
2021/5/3,10:00:00,6,�쓌,3.3,9.2,54.7,0,0.68,6,�쓌,4.6,54,,
2021/5/3,11:00:00,6,�쓌,3.1,8.4,57.1,0,0.63,5,���쓌,4.7,29,,
2021/5/3,12:00:00,6,�쓌,2.2,9.2,55.6,0,0.57,7,��쓌,5,11,,
2021/5/3,13:00:00,6,�쓌,3.8,10.2,53.4,0,0.62,15,�k�k��,6.8,27,,
2021/5/3,14:00:00,6,�쓌,3.1,8,63.3,0,0.42,5,���쓌,6.5,5,,
2021/5/3,15:00:00,1,�k�k��,1.6,9.5,55.1,0,0.23,14,�k��,7.1,30,,
2021/5/3,16:00:00,15,�k�k��,2.4,9.6,54.9,0,0.22,13,���k��,4.3,49,,
2021/5/3,17:00:00,16,�k,2.7,9.3,57.1,0,0.16,16,�k,5.2,56,,
2021/5/3,18:00:00,15,�k�k��,3,6.9,67,0,0.06,14,�k��,9.1,7,,
2021/5/3,19:00:00,14,�k��,2.8,6.7,67.4,0,0.01,14,�k��,5.5,21,,
2021/5/3,20:00:00,14,�k��,3.3,7.3,56.9,0,0,15,�k�k��,8.4,58,,
2021/5/3,21:00:00,15,�k�k��,3.7,5.7,62.9,0,0,15,�k�k��,10.9,36,,
2021/5/3,22:00:00,14,�k��,2.4,6,61.8,0,0,15,�k�k��,7.6,0,,
2021/5/3,23:00:00,11,���쐼,1,5.7,66.2,0,0,14,�k��,4.7,2,,
2021/5/3,0:00:00,14,�k��,2.3,5.5,64,0,0,15,�k�k��,4.9,44,,
2021/5/4,1:00:00,11,���쐼,0.3,-0.8,79.5,0,0,14,�k��,4.5,4,,
2021/5/4,2:00:00,12,��,2,1.1,86.5,0,0,13,���k��,2.8,51,,
2021/5/4,3:00:00,14,�k��,1.4,-0.6,91.7,0,0,2,�k��,2.5,16,,
2021/5/4,4:00:00,13,���k��,1.9,1.5,90.7,0,0,13,���k��,4,20,,
2021/5/4,5:00:00,13,���k��,1.8,2.7,86.4,0,0.02,14,�k��,3.2,8,,
2021/5/4,6:00:00,7,��쓌,1.7,7.7,68.1,0,0.23,8,��,3.8,43,,
2021/5/4,7:00:00,14,�k��,5.9,11.1,49.4,0,0.53,13,���k��,10.9,56,,
2021/5/4,8:00:00,15,�k�k��,8.8,11.3,43.5,0,0.64,16,�k,15.3,31,,
2021/5/4,9:00:00,15,�k�k��,7.7,12.5,44.6,0,0.81,15,�k�k��,17.5,39,,
2021/5/4,10:00:00,15,�k�k��,6.8,12.8,40.5,0,0.94,14,�k��,16.4,28,,
2021/5/4,11:00:00,15,�k�k��,7.4,14.6,44.7,0,1.03,15,�k�k��,14.6,2,,
2021/5/4,12:00:00,15,�k�k��,5.5,15.3,38.4,0,1.06,15,�k�k��,12.8,8,,
2021/5/4,13:00:00,16,�k,6.3,15,37.4,0,1.01,1,�k�k��,12.5,51,,
2021/5/4,14:00:00,15,�k�k��,4.6,15.2,39.4,0,0.9,16,�k,10.3,6,,
2021/5/4,15:00:00,6,�쓌,3.7,12.4,52.2,0,0.73,13,���k��,8.6,10,,
2021/5/4,16:00:00,5,���쓌,3.3,9.3,70,0,0.5,7,��쓌,7.6,0,,
2021/5/4,17:00:00,4,��,2.3,8.1,74.6,0,0.3,4,��,4.7,24,,
2021/5/4,18:00:00,8,��,0.9,5.9,82.1,0,0.15,4,��,4.9,1,,
2021/5/4,19:00:00,11,���쐼,1,4.5,85.2,0,0.01,6,�쓌,2.9,11,,
2021/5/4,20:00:00,12,��,1,2.6,93,0,0,11,���쐼,1.9,32,,
2021/5/4,21:00:00,12,��,0.3,1.1,95.6,0,0,14,�k��,7.6,8,,
2021/5/4,22:00:00,15,�k�k��,0.3,0.8,97.6,0,0,15,�k�k��,2.3,18,,
2021/5/4,23:00:00,13,���k��,0.6,0.4,98.8,0,0,16,�k,7.4,46,,
2021/5/4,0:00:00,13,���k��,1.2,0.9,98.8,0,0,12,��,1.8,13,,
2021/5/5,1:00:00,2.7,�k��,98,0,0,,,,,,,,
2021/5/5,2:00:00,16,�É�,0,3.4,96.9,0,0,2,�k��,2.6,32,,
2021/5/5,3:00:00,1,�k�k��,0.9,3.6,97.1,0,0,14,�k��,2.3,34,,
2021/5/5,4:00:00,12,��,1.2,3.9,94.9,0,0,2,�k��,2.6,7,,
2021/5/5,5:00:00,13,���k��,1.1,4.4,95.2,0,0.01,13,���k��,1.9,44,,
2021/5/5,6:00:00,6.1,�쓌,87.2,0,0.11,,,,,,,,
2021/5/5,7:00:00,4,��,2.3,7.7,74.3,0,0.28,4,��,3.3,59,,
2021/5/5,8:00:00,4,��,2.8,8.7,70.6,0,0.47,3,���k��,4.6,59,,
2021/5/5,9:00:00,4,��,4.2,9.4,69.3,0,0.74,3,���k��,6.1,40,,
2021/5/5,10:00:00,3,���k��,3.9,8.8,74.2,0,0.76,3,���k��,6.7,36,,
2021/5/5,11:00:00,4,��,4.6,7.9,81.1,0,0.49,4,��,7.2,27,,
2021/5/5,12:00:00,4,��,4.5,7.4,81,0,0.41,4,��,7.1,1,,
2021/5/5,13:00:00,3,���k��,3.3,8,80,0,0.32,3,���k��,6.4,9,,
2021/5/5,14:00:00,3,���k��,4.4,6.9,85.1,0,0.14,3,���k��,7,13,,
2021/5/5,15:00:00,3,���k��,4.2,6.6,90.4,0,0.08,3,���k��,6.8,33,,
2021/5/5,16:00:00,3,���k��,4.2,6,96.8,0,0.04,3,���k��,7.1,45,,
2021/5/5,17:00:00,2,�k��,3.6,5.8,98.6,0,0.04,3,���k��,8.3,32,,
2021/5/5,18:00:00,1,�k�k��,2.1,6.1,99.3,0,0.01,2,�k��,6.5,5,,
2021/5/5,19:00:00,1,�k�k��,2,6.5,99.8,0,0,3,���k��,4,33,,
2021/5/5,20:00:00,13,���k��,2,6.6,100,0,0,13,���k��,3.4,0,,
2021/5/5,21:00:00,11,���쐼,0.8,6.8,100,0,0,13,���k��,3.6,0,,
2021/5/5,22:00:00,6.9,�쓌,100,0,0,,,,,,,,
2021/5/5,23:00:00,13,���k��,1.8,6.6,100,0,0,12,��,3.6,57,,
2021/5/5,0:00:00,6,�쓌,2,6,100,0,0,9,��쐼,3.9,52,,
2021/5/6,1:00:00,9,��쐼,1.5,4.7,100,0,0,10,�쐼,3.7,56,,
2021/5/6,2:00:00,11,���쐼,1.8,2.6,100,0,0,14,�k��,5.1,41,,
2021/5/6,3:00:00,14,�k��,1.7,6.3,90.6,0,0,13,���k��,4.5,56,,
2021/5/6,4:00:00,16,�k,1,5.9,85.4,0,0,15,�k�k��,3.5,34,,
2021/5/6,5:00:00,14,�k��,1.2,3.3,93,0,0.03,2,�k��,3.1,55,,
2021/5/6,6:00:00,2,�k��,0.9,8.5,86.2,0,0.2,15,�k�k��,4.7,45,,
2021/5/6,7:00:00,7,��쓌,2.8,12.4,68.5,0,0.42,8,��,4.3,52,,
2021/5/6,8:00:00,12,��,6.8,16.6,45.6,0,0.63,11,���쐼,11.2,58,,
2021/5/6,9:00:00,12,��,9.2,17.6,41.2,0,0.8,11,���쐼,14.2,55,,
2021/5/6,10:00:00,11,���쐼,7.6,17.6,43.8,0,0.92,13,���k��,13.6,10,,
2021/5/6,11:00:00,12,��,4.9,19,39.6,0,0.99,13,���k��,13.4,36,,
2021/5/6,12:00:00,12,��,7.1,19.8,32.2,0,1.06,12,��,14.6,12,,
2021/5/6,13:00:00,12,��,7,20.4,33,0,1.02,12,��,11.7,26,,
2021/5/6,14:00:00,12,��,8.6,20,33.1,0,0.92,11,���쐼,13.2,51,,
2021/5/6,15:00:00,12,��,6.3,20.7,32.8,0,0.76,11,���쐼,11.7,10,,
2021/5/6,16:00:00,11,���쐼,6.3,19.8,30.7,0,0.55,11,���쐼,13.2,11,,
2021/5/6,17:00:00,11,���쐼,6.6,18.7,31.1,0,0.36,11,���쐼,9.9,45,,
2021/5/6,18:00:00,10,�쐼,4.4,17,38.5,0,0.15,11,���쐼,8.6,11,,
2021/5/6,19:00:00,9,��쐼,2.8,15.2,42.3,0,0.02,10,�쐼,6.7,26,,
2021/5/6,20:00:00,9,��쐼,3.6,13.8,48,0,0,9,��쐼,7,59,,
2021/5/6,21:00:00,9,��쐼,3.8,13.1,46.5,0,0,9,��쐼,7.4,29,,
2021/5/6,22:00:00,9,��쐼,4.9,11.7,53.2,0,0,8,��,9.6,51,,
2021/5/6,23:00:00,9,��쐼,4,11.9,56.4,0,0,8,��,9.3,0,,
2021/5/6,0:00:00,9,��쐼,4.5,12.5,50.1,0,0,10,�쐼,7.2,22,,
2021/5/7,1:00:00,9,��쐼,4.6,12.3,46.3,0,0,9,��쐼,9,39,,
2021/5/7,2:00:00,10,�쐼,3.8,13.6,35.9,0,0,10,�쐼,7.8,14,,
2021/5/7,3:00:00,1,�k�k��,1.6,7,64.5,0,0,10,�쐼,6.3,0,,
2021/5/7,4:00:00,1,�k�k��,1.4,4.9,73.8,0,0,1,�k�k��,3.6,1,,
2021/5/7,5:00:00,13,���k��,0.3,5,77.8,0,0.03,1,�k�k��,2.3,17,,
2021/5/7,6:00:00,16,�É�,0.2,9.8,65.6,0,0.18,12,��,2.3,50,,
2021/5/7,7:00:00,1,�k�k��,2.2,13.8,54.8,0,0.4,1,�k�k��,2.9,52,,
2021/5/7,8:00:00,9,��쐼,2.8,16.9,41.9,0,0.6,8,��,5.3,50,,
2021/5/7,9:00:00,8,��,5.4,14.4,49.7,0,0.78,7,��쓌,11.3,54,,
2021/5/7,10:00:00,8,��,7.6,14.6,47.3,0,0.93,7,��쓌,13.9,53,,
2021/5/7,11:00:00,8,��,7.4,14.6,44.1,0,1.02,8,��,15.4,57,,
2021/5/7,12:00:00,9,��쐼,6.7,18.3,32.2,0,1.03,9,��쐼,13.8,41,,
2021/5/7,13:00:00,8,��,4.7,21.8,26.4,0,0.95,8,��,12.5,19,,
2021/5/7,14:00:00,7,��쓌,2.8,17.7,44.1,0,0.88,10,�쐼,10.8,2,,
2021/5/7,15:00:00,9,��쐼,3.9,16.8,41.8,0,0.69,6,�쓌,10.5,23,,
2021/5/7,16:00:00,8,��,4.8,14.4,44.9,0,0.52,8,��,8.6,29,,
2021/5/7,17:00:00,8,��,3.8,14.3,43.9,0,0.33,7,��쓌,9,13,,
2021/5/7,18:00:00,5,���쓌,1.2,12.2,54.1,0,0.09,9,��쐼,7.6,2,,
2021/5/7,19:00:00,8,��,3.4,11.5,51.3,0,0.01,8,��,7.6,56,,
2021/5/7,20:00:00,7,��쓌,2,9.9,69.9,0,0,7,��쓌,7.4,44,,
2021/5/7,21:00:00,3,���k��,2.1,8.3,86.8,0,0,7,��쓌,7.2,10,,
2021/5/7,22:00:00,4,��,1.5,8.6,85.4,0,0,6,�쓌,6.8,34,,
2021/5/7,23:00:00,4,��,2.2,8.2,92.1,0,0,5,���쓌,4.7,5,,
2021/5/7,0:00:00,2,�k��,1.8,7.8,93.7,0,0,2,�k��,3,45,,
2021/5/8,1:00:00,1,�k�k��,1.2,8.3,92.6,0,0,1,�k�k��,2.9,34,,
2021/5/8,2:00:00,1,�k�k��,2.2,8.4,93.1,0,0,1,�k�k��,3.7,48,,
2021/5/8,3:00:00,2,�k��,1.4,8.5,94,0,0,2,�k��,3.6,19,,
2021/5/8,4:00:00,1,�k�k��,1.7,8.6,96.4,0,0,16,�k,3.1,6,,
2021/5/8,5:00:00,2,�k��,1.3,8.8,98.4,0,0.01,15,�k�k��,4,15,,
2021/5/8,6:00:00,1,�k�k��,2.3,9.5,97.2,0,0.05,1,�k�k��,3.6,51,,
2021/5/8,7:00:00,13,���k��,1,10.4,94.2,0,0.11,15,�k�k��,2.5,3,,
2021/5/8,8:00:00,3,���k��,1.5,10.8,95.9,0,0.12,1,�k�k��,2.5,33,,
2021/5/8,9:00:00,4,��,3.7,13,79.8,0,0.72,4,��,5.8,54,,
2021/5/8,10:00:00,5,���쓌,4.3,13,80.2,0,1,4,��,5.8,26,,
2021/5/8,11:00:00,7,��쓌,3.8,10.8,82.8,0,0.79,7,��쓌,6.8,36,,
2021/5/8,12:00:00,7,��쓌,3.2,12.8,72.7,0,1,8,��,6,28,,
2021/5/8,13:00:00,11,���쐼,6.8,20.5,42.9,0,0.99,12,��,13.2,47,,
2021/5/8,14:00:00,11,���쐼,8.8,20.9,33.9,0,0.88,11,���쐼,14.8,41,,
2021/5/8,15:00:00,12,��,7.9,20.5,31,0,0.73,12,��,14.1,44,,
2021/5/8,16:00:00,12,��,6.9,19.8,32,0,0.55,12,��,12.1,9,,
2021/5/8,17:00:00,12,��,5,18.4,34.8,0,0.34,12,��,10.1,36,,
2021/5/8,18:00:00,12,��,4.8,17,35.5,0,0.14,12,��,10.4,9,,
2021/5/8,19:00:00,11,���쐼,2.3,14.3,43.7,0,0.02,12,��,7.3,1,,
2021/5/8,20:00:00,11,���쐼,3.4,14.1,44.2,0,0,11,���쐼,6.5,57,,
2021/5/8,21:00:00,12,��,6.2,14.5,40.4,0,0,12,��,9.7,36,,
2021/5/8,22:00:00,15,�k�k��,1.7,12.6,46.7,0,0,12,��,10.6,18,,
2021/5/8,23:00:00,12,��,0.7,7.4,69.9,0,0,11,���쐼,2.6,12,,
2021/5/8,0:00:00,13,���k��,2,4.8,83.3,0,0,12,��,2.7,56,,
2021/5/9,1:00:00,12,��,2.5,4.1,82.7,0,0,12,��,4,45,,
2021/5/9,2:00:00,12,��,1.7,4.5,85.6,0,0,14,�k��,3.6,40,,
2021/5/9,3:00:00,12,��,1.9,2.6,91,0,0,12,��,3.6,37,,
2021/5/9,4:00:00,12,��,3.2,1.8,92.8,0,0,12,��,3.7,56,,
2021/5/9,5:00:00,12,��,2.5,3,93,0,0.04,12,��,3.2,0,,
2021/5/9,6:00:00,12,��,0.9,7.9,78.2,0,0.21,13,���k��,2.5,0,,
2021/5/9,7:00:00,3,���k��,2.7,12.4,61.2,0,0.4,3,���k��,4,59,,
2021/5/9,8:00:00,4,��,3.8,12.7,76.9,0,0.59,5,���쓌,5.9,45,,
2021/5/9,9:00:00,4,��,3.7,12.5,75.5,0,0.74,5,���쓌,5.7,31,,
2021/5/9,10:00:00,5,���쓌,4.7,11.9,75.4,0,0.86,4,��,6.3,34,,
2021/5/9,11:00:00,5,���쓌,3.9,10,68.1,0,0.79,4,��,6.5,35,,
2021/5/9,12:00:00,1,�k�k��,1.5,8.8,95.1,0,0.22,4,��,6,25,,
2021/5/9,13:00:00,5,���쓌,2.4,9.5,90.9,0,0.35,4,��,4.2,43,,
2021/5/9,14:00:00,14,�k��,1.6,10,94.7,3.5,0.03,14,�k��,5.5,15,,
2021/5/9,15:00:00,3,���k��,1,12.3,86.4,2.5,0.25,16,�k,7.9,22,,
2021/5/9,16:00:00,6,�쓌,2.8,10.6,87.8,0,0.46,5,���쓌,4.5,50,,
2021/5/9,17:00:00,8,��,3.5,8.9,89.7,0,0.17,7,��쓌,6.4,55,,
2021/5/9,18:00:00,9,��쐼,1.7,7.8,93.7,0,0.12,9,��쐼,6.5,18,,
2021/5/9,19:00:00,11,���쐼,0.5,5.2,93.2,0,0.02,8,��,4.8,13,,
2021/5/9,20:00:00,13,���k��,1.4,4,99.5,0,0,15,�k�k��,2.7,1,,
2021/5/9,21:00:00,1,�k�k��,1.7,4.3,95,0,0,11,���쐼,5,23,,
2021/5/9,22:00:00,14,�k��,2.2,5.8,90.1,0,0,14,�k��,4.4,37,,
2021/5/9,23:00:00,14,�k��,0.8,4.3,94.6,0,0,14,�k��,3.7,9,,
2021/5/9,0:00:00,5.1,���쓌,99.1,0,0,,,,,,,,
2021/5/10,1:00:00,15,�k�k��,0.6,3.7,97.9,0,0,11,���쐼,4.1,29,,
2021/5/10,2:00:00,9,��쐼,0.6,5.1,98.1,0,0,13,���k��,4.7,4,,
2021/5/10,3:00:00,5,���쓌,1.2,6,95.1,0,0,13,���k��,6.9,31,,
2021/5/10,4:00:00,2,�k��,0.6,5.4,98.7,0,0,10,�쐼,2.5,34,,
2021/5/10,5:00:00,7,��쓌,1.8,7.8,84,0,0.01,8,��,3.2,53,,
2021/5/10,6:00:00,7.3,��쓌,94.6,0,0.08,,,,,,,,
2021/5/10,7:00:00,10,�쐼,1.7,11.3,72.1,0,0.33,11,���쐼,3,58,,
2021/5/10,8:00:00,8,��,3.6,12.2,67,0,0.64,8,��,6.1,57,,
2021/5/10,9:00:00,8,��,3.8,11.3,64.3,0,0.73,8,��,9.1,34,,
2021/5/10,10:00:00,8,��,2.5,13.6,60.7,0,0.84,8,��,6.7,6,,
2021/5/10,11:00:00,8,��,2.7,13.8,63.7,0,0.72,7,��쓌,5.6,58,,
2021/5/10,12:00:00,6,�쓌,3.4,13.5,61.4,0,0.55,8,��,6,34,,
2021/5/10,13:00:00,10,�쐼,1.9,14.9,63,0,0.32,8,��,6.6,40,,
2021/5/10,14:00:00,13,���k��,4.1,16.6,46.3,0,0.46,13,���k��,6.9,44,,
2021/5/10,15:00:00,12,��,6.8,15.5,51.1,0,0.69,13,���k��,11.6,21,,
2021/5/10,16:00:00,15,�k�k��,3.7,14.3,51.2,0,0.25,11,���쐼,10.2,0,,
2021/5/10,17:00:00,15,�k�k��,4.1,13.3,52.2,0,0.15,14,�k��,9.5,15,,
2021/5/10,18:00:00,16,�k,3.4,12,57.1,0,0.14,16,�k,7.7,47,,
2021/5/10,19:00:00,14,�k��,2.3,9,67.9,0,0.02,14,�k��,6.3,11,,
2021/5/10,20:00:00,13,���k��,3.3,8.3,72.9,0,0,16,�k,5,6,,
2021/5/10,21:00:00,13,���k��,4.4,8,72.4,0,0,13,���k��,8,47,,
2021/5/10,22:00:00,11,���쐼,3.6,6.2,84.3,0,0,12,��,6.4,30,,
2021/5/10,23:00:00,12,��,4.3,6.2,83.5,0,0,12,��,6.5,56,,
2021/5/10,0:00:00,12,��,2.6,6.4,81,0,0,14,�k��,7,18,,
2021/5/11,1:00:00,7,��쓌,0.8,4.1,85.8,0,0,11,���쐼,3.8,20,,
2021/5/11,2:00:00,10,�쐼,1.9,3,89.1,0,0,11,���쐼,3.5,58,,
2021/5/11,3:00:00,10,�쐼,1.2,5.5,80,0,0,11,���쐼,3.7,0,,
2021/5/11,4:00:00,15,�k�k��,1.8,5.2,79.5,0,0,14,�k��,3.9,49,,
2021/5/11,5:00:00,12,��,2.3,6.3,75.5,0,0.04,12,��,4.2,40,,
2021/5/11,6:00:00,11,���쐼,2.1,8.5,72.3,0,0.17,11,���쐼,3.3,49,,
2021/5/11,7:00:00,12,��,2,9.8,65.5,0,0.31,12,��,4.2,15,,
2021/5/11,8:00:00,16,�k,2.6,13.1,54.5,0,0.5,16,�k,8.2,59,,
2021/5/11,9:00:00,15,�k�k��,4.2,13.9,49,0,0.77,14,�k��,8.4,58,,
2021/5/11,10:00:00,8,��,4.3,11.5,59.9,0,0.98,7,��쓌,7.9,45,,
2021/5/11,11:00:00,7,��쓌,4.5,11.3,61.5,0,0.93,6,�쓌,8.2,7,,
2021/5/11,12:00:00,7,��쓌,3.5,11.1,57.2,0,1.15,6,�쓌,6.8,14,,
2021/5/11,13:00:00,8,��,4.1,10.2,63.4,0,0.88,7,��쓌,6.8,25,,
2021/5/11,14:00:00,7,��쓌,3.5,10.4,62.3,0,0.62,9,��쐼,6.1,13,,
2021/5/11,15:00:00,7,��쓌,3,9.5,68.6,0,0.46,7,��쓌,5.8,22,,
2021/5/11,16:00:00,7,��쓌,1.9,8.9,74.2,0,0.14,6,�쓌,4.3,6,,
2021/5/11,17:00:00,6,�쓌,1.6,9.1,68.5,0,0.13,7,��쓌,2.9,4,,
2021/5/11,18:00:00,8,��,1.3,8.2,74.5,0,0.04,6,�쓌,2.6,49,,
2021/5/11,19:00:00,8,��,1,7.7,76.4,0,0.01,8,��,2.5,7,,
2021/5/11,20:00:00,8,��,1.4,7.3,78.6,0,0,9,��쐼,2.5,49,,
2021/5/11,21:00:00,5,���쓌,1.2,5.7,87,0,0,7,��쓌,2.1,40,,
2021/5/11,22:00:00,7,��쓌,0.8,3.9,93.1,0,0,5,���쓌,1.4,2,,
2021/5/11,23:00:00,16,�É�,0.1,3.6,98.4,0,0,6,�쓌,3,35,,
2021/5/11,0:00:00,13,���k��,0.9,4.2,98.2,0,0,14,�k��,2.5,22,,
2021/5/12,1:00:00,13,���k��,1,4,96.3,0,0,14,�k��,2.3,32,,
2021/5/12,2:00:00,14,�k��,0.4,4.2,92.6,0,0,14,�k��,2.1,34,,
2021/5/12,3:00:00,3.7,���k��,92.9,0,0,,,,,,,,
2021/5/12,4:00:00,1.9,�k�k��,91.7,0,0,,,,,,,,
2021/5/12,5:00:00,13,���k��,0.4,2.5,88.4,0,0.05,12,��,2.7,56,,
2021/5/12,6:00:00,15,�k�k��,1.3,4.7,81.2,0,0.23,14,�k��,3,12,,
2021/5/12,7:00:00,4,��,0.6,7.3,70.9,0,0.44,3,���k��,2.5,26,,
2021/5/12,8:00:00,4,��,3.4,7.7,69.3,0,0.63,4,��,4.6,54,,
2021/5/12,9:00:00,5,���쓌,4,7.2,65,0,0.8,5,���쓌,5.6,57,,
2021/5/12,10:00:00,5,���쓌,4.8,7.3,68.5,0,0.95,5,���쓌,7.5,56,,
2021/5/12,11:00:00,6,�쓌,3.8,7.7,72.6,0,0.99,6,�쓌,7.2,39,,
2021/5/12,12:00:00,6,�쓌,4.3,7.8,70.5,0,1.01,5,���쓌,7.8,7,,
2021/5/12,13:00:00,6,�쓌,4.6,7.7,70.2,0,1.02,5,���쓌,7.5,48,,
2021/5/12,14:00:00,6,�쓌,4,7.9,66.2,0,0.9,5,���쓌,8.2,4,,
2021/5/12,15:00:00,6,�쓌,4,7.5,75.5,0,0.71,6,�쓌,7.2,28,,
2021/5/12,16:00:00,7,��쓌,2.9,7,84.1,0,0.33,8,��,7.4,5,,
2021/5/12,17:00:00,7,��쓌,3.4,6.8,86.4,0,0.14,6,�쓌,6.3,45,,
2021/5/12,18:00:00,6,�쓌,2.7,6.3,89.8,0,0.06,7,��쓌,6.5,5,,
2021/5/12,19:00:00,6,�쓌,2,6,91.5,0,0.01,7,��쓌,4.4,0,,
2021/5/12,20:00:00,6,�쓌,1.7,6,91.7,0,0,6,�쓌,4,28,,
2021/5/12,21:00:00,4,��,1.8,6.2,91.2,0,0,5,���쓌,3.1,29,,
2021/5/12,22:00:00,5,���쓌,2,6.3,92.1,0,0,5,���쓌,3.2,35,,
2021/5/12,23:00:00,3,���k��,1.4,6.3,94.2,0,0,3,���k��,3,39,,
2021/5/12,0:00:00,3,���k��,1.7,6.1,95.3,0,0,4,��,2.5,18,,
2021/5/13,1:00:00,3,���k��,1.4,6.1,95.7,0,0,2,�k��,2.5,0,,
2021/5/13,2:00:00,1,�k�k��,1.9,5.8,96.6,0,0,1,�k�k��,2.7,52,,
2021/5/13,3:00:00,1,�k�k��,1.3,5.8,97.9,0,0,1,�k�k��,3.3,38,,
2021/5/13,4:00:00,1,�k�k��,1.3,5.6,99,0,0,16,�k,2.3,53,,
2021/5/13,5:00:00,16,�k,0.9,5.8,99.6,0,0.01,1,�k�k��,1.9,45,,
2021/5/13,6:00:00,1,�k�k��,1,5.9,99.9,0,0.03,16,�k,2.6,14,,
2021/5/13,7:00:00,2,�k��,0.7,6.3,100,0,0.06,16,�k,2.8,19,,
2021/5/13,8:00:00,2,�k��,1.4,6.4,100,0,0.09,2,�k��,2.8,34,,
2021/5/13,9:00:00,3,���k��,1.3,6.7,100,0,0.09,3,���k��,3.2,47,,
2021/5/13,10:00:00,2,�k��,1.5,7.1,100,0,0.13,4,��,3,15,,
2021/5/13,11:00:00,2,�k��,0.5,8,99.9,0,0.15,16,�k,2.5,3,,
2021/5/13,12:00:00,3,���k��,2.6,8.1,98.9,0,0.17,3,���k��,4.5,51,,
2021/5/13,13:00:00,4,��,1.8,8.4,97.3,0,0.16,5,���쓌,3.2,0,,
2021/5/13,14:00:00,5,���쓌,2,8.8,95.2,0,0.17,3,���k��,3.3,10,,
2021/5/13,15:00:00,4,��,2.7,8.6,95.9,0,0.16,2,�k��,4,30,,
2021/5/13,16:00:00,5,���쓌,2.2,8.6,96.7,0,0.14,3,���k��,3.4,10,,
2021/5/13,17:00:00,5,���쓌,1.2,8,97.7,0,0.07,5,���쓌,2.9,48,,
2021/5/13,18:00:00,3,���k��,0.8,7.9,98.7,0,0.04,6,�쓌,2.4,25,,
2021/5/13,19:00:00,1,�k�k��,0.8,8,99.3,0,0.01,4,��,2.9,38,,
2021/5/13,20:00:00,14,�k��,0.5,8,99.8,0,0,15,�k�k��,1.8,19,,
2021/5/13,21:00:00,14,�k��,0.9,8,100,0,0,15,�k�k��,2.1,59,,
2021/5/13,22:00:00,14,�k��,0.8,8.2,99.8,0,0,13,���k��,2,32,,
2021/5/13,23:00:00,16,�É�,0,7.7,99.7,0,0,16,�k,2.4,18,,
2021/5/13,0:00:00,6.9,�쓌,99.8,0,0,,,,,,,,
2021/5/14,1:00:00,14,�k��,1.6,7.5,100,0,0,15,�k�k��,2.5,58,,
2021/5/14,2:00:00,12,��,0.7,7.1,100,0,0,14,�k��,2.7,18,,
2021/5/14,3:00:00,14,�k��,0.7,5.6,100,0,0,12,��,2,44,,
2021/5/14,4:00:00,16,�k,0.9,4.8,100,0,0,1,�k�k��,1.5,53,,
2021/5/14,5:00:00,15,�k�k��,1.2,5.6,100,0,0.03,15,�k�k��,7.3,37,,
2021/5/14,6:00:00,13,���k��,0.8,8.1,100,0,0.1,14,�k��,2.5,30,,
2021/5/14,7:00:00,13,���k��,0.7,9.7,99.9,0,0.18,13,���k��,1.8,2,,
2021/5/14,8:00:00,4,��,0.7,11.2,93.6,0,0.27,16,�k,2.2,12,,
2021/5/14,9:00:00,7,��쓌,2.5,13.8,75.2,0,0.76,7,��쓌,3.6,44,,
2021/5/14,10:00:00,6,�쓌,3.7,13.2,74.8,0,0.94,6,�쓌,5.2,59,,
2021/5/14,11:00:00,6,�쓌,2.7,12.9,78.2,0,1.04,6,�쓌,5.7,1,,
2021/5/14,12:00:00,6,�쓌,3,12,78.4,0,1.07,6,�쓌,6.1,37,,
2021/5/14,13:00:00,6,�쓌,3.3,12.1,74.4,0,1.02,6,�쓌,5.4,36,,
2021/5/14,14:00:00,7,��쓌,2.5,13,76.8,0,0.92,6,�쓌,5.2,18,,
2021/5/14,15:00:00,3,���k��,2.1,12.7,79.5,0,0.57,5,���쓌,5.1,6,,
2021/5/14,16:00:00,8,��,2.1,15.7,65.6,0,0.35,8,��,3.8,54,,
2021/5/14,17:00:00,5,���쓌,2.8,11.6,82,0,0.2,5,���쓌,5.2,50,,
2021/5/14,18:00:00,1,�k�k��,1.4,11.1,92,0,0.1,4,��,5.4,24,,
2021/5/14,19:00:00,7,��쓌,1.4,11.2,94.7,0.5,0.01,8,��,2.5,54,,
2021/5/14,20:00:00,13,���k��,2.3,8.8,98.2,0,0,11,���쐼,4.6,21,,
2021/5/14,21:00:00,13,���k��,2.3,9,96.5,0,0,14,�k��,3.8,47,,
2021/5/14,22:00:00,2,�k��,0.3,8.5,96.5,0,0,16,�k,7.1,48,,
2021/5/14,23:00:00,6.7,�쓌,97.3,0,0,,,,,,,,
2021/5/14,0:00:00,12,��,1.2,6.7,98.7,0,0,12,��,2.3,41,,
2021/5/15,1:00:00,15,�k�k��,1,3.8,99.8,0,0,12,��,2.3,1,,
2021/5/15,2:00:00,13,���k��,1.5,3.9,100,0,0,15,�k�k��,2.1,39,,
2021/5/15,3:00:00,12,��,2.4,4.2,100,0,0,12,��,3.2,48,,
2021/5/15,4:00:00,14,�k��,1.5,3.1,100,0,0,12,��,3.4,12,,
2021/5/15,5:00:00,2,�k��,0.8,3.4,100,0,0.04,14,�k��,2.3,2,,
2021/5/15,6:00:00,3,���k��,1.2,7,100,0,0.11,3,���k��,2.6,33,,
2021/5/15,7:00:00,6,�쓌,1.3,7.5,100,0,0.23,3,���k��,2.7,9,,
2021/5/15,8:00:00,6,�쓌,1.4,7.4,100,0,0.35,5,���쓌,3,34,,
2021/5/15,9:00:00,5,���쓌,2.3,7.3,100,0,0.48,5,���쓌,3.7,58,,
2021/5/15,10:00:00,7,��쓌,2.2,7.5,97.8,0,0.69,6,�쓌,3.8,51,,
2021/5/15,11:00:00,7,��쓌,2.8,7.6,92,0,0.81,6,�쓌,4.9,56,,
2021/5/15,12:00:00,7,��쓌,2.3,8.6,90.6,0,0.69,5,���쓌,4.6,23,,
2021/5/15,13:00:00,6,�쓌,2.7,8.2,89.6,0,0.74,7,��쓌,5.2,49,,
2021/5/15,14:00:00,6,�쓌,2.5,8,92.8,0,0.58,8,��,5.6,9,,
2021/5/15,15:00:00,7,��쓌,3.3,7.2,90.7,0,0.53,6,�쓌,5.9,22,,
2021/5/15,16:00:00,7,��쓌,2.6,7.2,93.3,0,0.3,7,��쓌,6.1,59,,
2021/5/15,17:00:00,5,���쓌,2.8,6.9,96.7,0,0.22,7,��쓌,5.6,27,,
2021/5/15,18:00:00,6,�쓌,3,6.5,98,0,0.07,6,�쓌,6.5,26,,
2021/5/15,19:00:00,5,���쓌,2.1,6.6,99.3,0,0.01,6,�쓌,4.5,7,,
2021/5/15,20:00:00,6,�쓌,2.5,6.7,99.9,0,0,6,�쓌,3.9,33,,
2021/5/15,21:00:00,5,���쓌,2.3,6.6,100,0,0,5,���쓌,3.6,11,,
2021/5/15,22:00:00,5,���쓌,1.9,6.3,100,0,0,4,��,4,9,,
2021/5/15,23:00:00,5,���쓌,2.2,6.2,100,0,0,5,���쓌,3.5,18,,
2021/5/15,0:00:00,5,���쓌,1.7,6.5,100,0,0,5,���쓌,3.4,27,,
2021/5/16,1:00:00,3,���k��,1.5,6.7,100,0,0,5,���쓌,2.9,28,,
2021/5/16,2:00:00,3,���k��,1.6,7.1,100,0,0,4,��,2.7,26,,
2021/5/16,3:00:00,4,��,1.4,7.3,100,0,0,4,��,2.6,24,,
2021/5/16,4:00:00,1,�k�k��,1.5,7.4,100,0,0,1,�k�k��,2.3,47,,
2021/5/16,5:00:00,2,�k��,1,8.3,100,0,0.01,4,��,2.8,28,,
2021/5/16,6:00:00,8.3,��,100,0,0.05,,,,,,,,
2021/5/16,7:00:00,1,�k�k��,1.1,9.9,100,0,0.09,3,���k��,3.1,28,,
2021/5/16,8:00:00,14,�k��,0.6,10.1,100,0,0.14,14,�k��,3.4,5,,
2021/5/16,9:00:00,10.9,�쐼,100,0,0.12,,,,,,,,
2021/5/16,10:00:00,13,���k��,0.8,11.7,99.4,0,0.25,15,�k�k��,2.4,2,,
2021/5/16,11:00:00,2,�k��,1.2,13.1,93.8,0,0.24,11,���쐼,8.2,5,,
2021/5/16,12:00:00,4,��,1,13.4,90.9,0,0.21,4,��,3.7,19,,
2021/5/16,13:00:00,8,��,3.2,12.6,90.3,0,0.12,8,��,6.1,17,,
2021/5/16,14:00:00,8,��,4.8,12.7,90,0,0.28,8,��,10.4,26,,
2021/5/16,15:00:00,9,��쐼,4.5,12.7,95.6,0.5,0.12,9,��쐼,12,40,,
2021/5/16,16:00:00,8,��,5.3,11.8,94.9,0.5,0.15,9,��쐼,12.5,39,,
2021/5/16,17:00:00,9,��쐼,3.3,10.6,97.8,0,0.07,9,��쐼,8.9,10,,
2021/5/16,18:00:00,16,�É�,0.2,11.4,97.3,0,0.09,10,�쐼,4.1,2,,
2021/5/16,19:00:00,9,��쐼,0.6,11.7,98.6,0,0.01,12,��,3,39,,
2021/5/16,20:00:00,13,���k��,0.7,11.7,99.5,0,0,14,�k��,2.5,50,,
2021/5/16,21:00:00,3,���k��,1,11.4,99.5,1,0,3,���k��,2.5,42,,
2021/5/16,22:00:00,16,�É�,0.2,11.2,99.9,0.5,0,1,�k�k��,1.9,12,,
2021/5/16,23:00:00,5,���쓌,0.8,11.6,100,4,0,15,�k�k��,1.7,12,,
2021/5/16,0:00:00,15,�k�k��,0.7,11.5,100,1.5,0,2,�k��,1.9,4,,
2021/5/17,1:00:00,16,�É�,0,11.5,100,0.5,0,1,�k�k��,1.1,12,,
2021/5/17,2:00:00,7,��쓌,1.1,11.4,100,0.5,0,13,���k��,1.7,33,,
2021/5/17,3:00:00,16,�É�,0,10.3,100,0.5,0,7,��쓌,1.4,27,,
2021/5/17,4:00:00,16,�É�,0.2,10.3,100,0.5,0,5,���쓌,1.8,1,,
2021/5/17,5:00:00,5,���쓌,1,9.3,100,1,0.01,4,��,2.1,25,,
2021/5/17,6:00:00,2,�k��,1.5,10.4,100,0,0.04,3,���k��,2.6,37,,
2021/5/17,7:00:00,1,�k�k��,0.3,11.3,100,0.5,0.07,1,�k�k��,2.5,20,,
2021/5/17,8:00:00,6,�쓌,1.5,10.8,99.2,0.5,0.12,6,�쓌,2.2,54,,
2021/5/17,9:00:00,5,���쓌,0.5,11.2,99.7,0.5,0.15,6,�쓌,2.2,8,,
2021/5/17,10:00:00,13.4,���k��,99,0,0.28,,,,,,,,
2021/5/17,11:00:00,16,�É�,0.1,14.8,95.3,0,0.33,6,�쓌,2.3,4,,
2021/5/17,12:00:00,8,��,1.2,12.3,97.1,0,0.24,5,���쓌,2.5,25,,